Tremblant, Canada 16 day weather forecast

Slopes altitude range 230 m - 875m

Number of lifts: 14 Pistes: 79km

In some cases the lift and piste totals shown are for the ski domain (e.g. Three Valleys) rather than individual resort (e.g. Courchevel)

Overview

The 16 day weather forecast is fully updated 4 times every day.

    • Mon 22 APR 2019
    • Mon 22
    • 3C 6C
    • Tue 23 APR 2019
    • Tue 23
    • 4C 6C
    • Wed 24 APR 2019
    • Wed 24
    • 6C 11C
    • Thu 25 APR 2019
    • Thu 25
    • -1C 2C
    • Fri 26 APR 2019
    • Fri 26
    • 2C 5C
    • Sat 27 APR 2019
    • Sat 27
    • 1C 4C
    • Sun 28 APR 2019
    • Sun 28
    • -1C 2C
    • Mon 29 APR 2019
    • Mon 29
    • 3C 4C
    • Tue 30 APR 2019
    • Tue 30
    • -1C 1C
    • Wed 01 MAY 2019
    • Wed 01
    • 0C 6C
    • Thu 02 MAY 2019
    • Thu 02
    • 3C 10C
    • Fri 03 MAY 2019
    • Fri 03
    • 10C 13C
    • Sat 04 MAY 2019
    • Sat 04
    • 4C 13C
    • Sun 05 MAY 2019
    • Sun 05
    • 9C 17C
    • Mon 06 MAY 2019
    • Mon 06
    • 6C 10C
    • Tue 07 MAY 2019
    • Tue 07
    • 9C 13C

Date:

Time Type 0°C level Temp Chill Snow Cloud Speed Gust Dir Press
3:00 2547m 5°C 5_3 0cm 4% 3mph 4mph 1022mB
6:00 2590m 3°C 3_5 0cm 2% 5mph 6mph 1023mB
9:00 2448m 3°C 3_4 0cm 6% 4mph 7mph 1025mB
12:00 2455m 6°C 6_5 0cm 3% 5mph 9mph 1026mB
15:00 2574m 14°C 14_4 0cm 0% 4mph 6mph 1025mB
18:00 2407m 16°C 16_5 0cm 1% 5mph 6mph 1023mB
21:00 2411m 15°C 15_6 0cm 0% 6mph 8mph 1021mB
0:00 2414m 9°C 9_5 0cm 22% 5mph 9mph 1022mB
3:00 2539m 6°C 6_5 0cm 28% 5mph 17mph 1022mB
6:00 2616m 6°C 6_8 0cm 49% 8mph 24mph 1022mB
9:00 2683m 4°C 4_7 0cm 65% 7mph 22mph 1020mB
12:00 2718m 6°C 6_9 0cm 73% 9mph 22mph 1019mB
15:00 2887m 12°C 12_11 0cm 37% 11mph 21mph 1016mB
18:00 2887m 14°C 14_12 0cm 52% 12mph 20mph 1011mB
21:00 2775m 14°C 14_12 0cm 56% 12mph 21mph 1007mB
0:00 2949m 11°C 11_13 0cm 78% 13mph 33mph 1004mB
3:00 2850m 10°C 10_13 0cm 100% 13mph 27mph 1000mB
6:00 2667m 10°C 10_10 0cm 100% 10mph 26mph 998mB
9:00 2166m 8°C 8_10 0cm 99% 10mph 24mph 997mB
12:00 1767m 11°C 11_9 0cm 99% 9mph 19mph 999mB
15:00 1826m 6°C 6_8 0cm 100% 8mph 17mph 1000mB
18:00 1891m 6°C 6_10 0cm 100% 10mph 22mph 1002mB
21:00 902m 5°C 5_14 0cm 99% 14mph 26mph 1004mB
0:00 857m 4°C 4_12 0cm 89% 12mph 27mph 1007mB
3:00 693m 2°C 2_10 0cm 25% 10mph 27mph 1009mB
6:00 457m 0°C 0_8 0cm 13% 8mph 23mph 1010mB
9:00 167m -1°C -1_5 0cm 26% 5mph 20mph 1012mB
12:00 474m 2°C 2_6 0cm 17% 6mph 16mph 1013mB
15:00 1035m 9°C 9_6 0cm 3% 6mph 10mph 1012mB
18:00 1344m 11°C 11_7 0cm 39% 7mph 10mph 1011mB
21:00 1336m 8°C 8_5 0cm 100% 5mph 9mph 1010mB
0:00 1469m 5°C 5_1 0cm 100% 1mph 2mph 1010mB
3:00 1576m 5°C 5_1 0cm 100% 1mph 1mph 1010mB
6:00 1387m 4°C 4_1 0cm 97% 1mph 2mph 1010mB
9:00 1546m 2°C 2_2 0cm 30% 2mph 2mph 1009mB
12:00 1431m 5°C 5_2 0cm 45% 2mph 3mph 1010mB
15:00 1545m 8°C 8_5 0cm 93% 5mph 8mph 1010mB
18:00 1516m 11°C 11_6 0cm 92% 6mph 12mph 1009mB
21:00 1715m 11°C 11_9 0cm 35% 9mph 15mph 1008mB
0:00 1720m 8°C 8_5 0cm 68% 5mph 12mph 1008mB
3:00 1574m 4°C 4_4 0cm 63% 4mph 6mph 1009mB
6:00 1080m 3°C 3_4 0cm 56% 4mph 13mph 1010mB
9:00 1032m 1°C 1_5 0cm 77% 5mph 18mph 1011mB
12:00 594m 4°C 4_11 0cm 39% 11mph 23mph 1013mB
15:00 737m 6°C 6_13 0cm 17% 13mph 21mph 1013mB
18:00 884m 8°C 8_13 0cm 33% 13mph 20mph 1013mB
21:00 946m 7°C 7_11 0cm 66% 11mph 16mph 1014mB
0:00 944m 3°C 3_4 0cm 83% 4mph 5mph 1015mB
3:00 662m 0°C 0_2 0cm 85% 2mph 3mph 1017mB
6:00 186m -1°C -1_4 0cm 55% 4mph 5mph 1017mB
9:00 847m -1°C -1_6 0cm 34% 6mph 18mph 1015mB
12:00 612m 2°C 2_10 0cm 67% 10mph 23mph 1013mB
15:00 741m 4°C 4_16 0cm 100% 16mph 30mph 1009mB
18:00 786m 4°C 4_19 0cm 100% 19mph 35mph 1005mB
21:00 848m 3°C 3_17 0cm 94% 17mph 33mph 1000mB
0:00 1507m 3°C 3_12 0cm 94% 12mph 26mph 998mB
3:00 1186m 3°C 3_9 0cm 99% 9mph 21mph 998mB
6:00 892m 3°C 3_6 0cm 100% 6mph 18mph 997mB
9:00 855m 3°C 3_8 0cm 100% 8mph 26mph 1000mB
12:00 799m 4°C 4_16 0cm 98% 16mph 34mph 1005mB
15:00 889m 6°C 6_18 0cm 100% 18mph 34mph 1007mB
18:00 938m 7°C 7_17 0cm 100% 17mph 30mph 1010mB
21:00 995m 7°C 7_17 0cm 100% 17mph 31mph 1013mB
0:00 863m 3°C 3_14 0cm 74% 14mph 33mph 1016mB
3:00 767m 3°C 3_16 0cm 1% 16mph 36mph 1018mB
6:00 549m 1°C 1_17 0cm 0% 17mph 40mph 1019mB
9:00 220m -1°C -1_16 0cm 0% 16mph 38mph 1021mB
12:00 416m 1°C 1_14 0cm 0% 14mph 32mph 1022mB
15:00 1088m 8°C 8_12 0cm 0% 12mph 21mph 1021mB
18:00 1291m 12°C 12_14 0cm 0% 14mph 22mph 1019mB
21:00 1448m 12°C 12_12 0cm 1% 12mph 21mph 1019mB
0:00 1352m 6°C 6_6 0cm 17% 6mph 18mph 1020mB
3:00 1279m 3°C 3_5 0cm 97% 5mph 13mph 1021mB
6:00 1244m 2°C 2_6 0cm 93% 6mph 17mph 1022mB
9:00 1234m 0°C 0_5 0cm 77% 5mph 9mph 1022mB
12:00 1269m 6°C 6_6 0cm 56% 6mph 14mph 1022mB
15:00 1341m 12°C 12_6 0cm 34% 6mph 11mph 1021mB
18:00 1685m 16°C 16_7 0cm 58% 7mph 10mph 1019mB
21:00 1852m 15°C 15_7 0cm 0% 7mph 11mph 1019mB
0:00 2839m 9°C 9_4 0cm 0% 4mph 6mph 1020mB
Afternoon 0mm 0 3235m 10°C 10_1 0cm 0% 1mph 2mph 1023mB
Morning 0mm 0 3695m 11°C 11_6 0cm 74% 6mph 19mph 1016mB
Afternoon 0.0885417mm 0.5 3295m 13°C 13_4 0cm 69% 4mph 8mph 1015mB
Morning 0.677083mm 1 2913m 12°C 12_5 0cm 63% 5mph 10mph 1018mB
Afternoon 0mm 0 2891m 13°C 13_8 0cm 15% 8mph 19mph 1024mB
Morning 0.536458mm 0 3416m 8°C 8_9 0cm 99% 9mph 22mph 1014mB
Afternoon 1.70833mm 10.6875 3313m 17°C 17_13 0cm 100% 13mph 30mph 1003mB
Morning 0.0104167mm 0.125 1509m 10°C 10_14 0cm 28% 14mph 37mph 1013mB
Afternoon 0mm 0 2742m 10°C 10_9 0cm 0% 9mph 22mph 1023mB
Morning 0mm 0 2996m 9°C 9_5 0cm 81% 5mph 14mph 1017mB
Afternoon 0.34375mm 0 3121m 13°C 13_7 0cm 100% 7mph 21mph 1010mB
Morning 0mm 0 1303m 9°C 9_10 0cm 22% 10mph 22mph 1016mB

16 day outlook at a glance

Forecast issued: 22/04/2019 08:03:58

Chat

Your comments and questions. In a resort? Let us know what it's like!


Characters left 250

For terms and conditions see Readers Comments on the Cookie and privacy policy page.